Location: Winthrop
(48.4780°N, 120.1850°W)
Time: 23:07:51
(UTC-07:00)

S-56A Canister/Altair - Pass Details

Date: 06 June 2023
Orbit: 640 x 2489 km, 38.9° (Epoch: 29 September)

Event Time Altitude Azimuth Distance (km) Brightness Sun altitude
Rises 22:31:55 0° 249° (WSW) 5,413 12.0 -11.5°
Reaches altitude 10° 22:35:14 10° 245° (WSW) 4,610 11.6 -11.8°
Maximum altitude 22:48:17 57° 173° (S) 2,770 10.0 -13.0°
Drops below altitude 10° 23:02:42 10° 100° (E) 5,048 11.3 -14.1°
Sets 23:06:31 0° 97° (E) 5,942 11.7 -14.4°
